Regional Weather Roundup
Issued by NWS

Home | Current Version | Previous Version | Text Only | Print | Product List | Glossary On
Versions: 1 2 3 4 5 6 7 8 9 10 11 12 13 14 15 16 17 18 19 20 21 22 23 24 25 26 27 28 29 30 31 32 33 34 35 36 37 38 39 40 41 42 43 44 45 46 47 48 49 50
000
ASUS43 KBIS 050010
RWRND

NORTH DAKOTA REGIONAL WEATHER ROUNDUP
NATIONAL WEATHER SERVICE BISMARCK ND
600 PM CST WED MAR 04 2015

NOTE: "FAIR" INDICATES FEW OR NO CLOUDS BELOW 12,000 FEET WITH NO
SIGNIFICANT WEATHER AND/OR OBSTRUCTIONS TO VISIBILITY.


NDZ001>003-009>011-017-050100-
NORTHWEST NORTH DAKOTA

CITY           SKY/WX    TMP DP  RH WIND       PRES   REMARKS
WILLISTON        N/A      7  -9  48 MISG      30.28F
6HR MIN TEMP:  -3; 6HR MAX TEMP:   7;

MINOT          CLEAR     -1 -13  56 W9        30.31F WCI -16
MINOT AFB      CLEAR     -1 -10  65 W8        30.31F WCI -16
$$

NDZ018>021-031>035-040>046-050100-
SOUTHWEST NORTH DAKOTA

CITY           SKY/WX    TMP DP  RH WIND       PRES   REMARKS
BISMARCK       CLEAR      5 -10  50 NW7       30.34S WCI  -7
6HR MIN TEMP:   0; 6HR MAX TEMP:   7;

DICKINSON      CLEAR     11  -9  40 NW8       30.20S WCI  -1
GARRISON         N/A     -1 -10  65 NW7       30.30F WCI -14
6HR MIN TEMP:  -5; 6HR MAX TEMP:   0;

HETTINGER ARPT CLEAR     12  -8  40 NW14      30.22F WCI  -3
$$

NDZ004>008-012>016-024-026-027-054-050100-
NORTHEAST NORTH DAKOTA

CITY           SKY/WX    TMP DP  RH WIND       PRES   REMARKS
GRAND FORKS    PTCLDY     1 -10  60 NW7       30.37R WCI -12
GRND FRKS AFB  CLEAR      0 -12  57 N9        30.36R WCI -15
DEVILS LAKE    CLEAR     -2 -15  55 W12       30.32S WCI -20
$$

NDZ022-023-025-028>030-036>039-047>053-050100-
SOUTHEAST NORTH DAKOTA

CITY           SKY/WX    TMP DP  RH WIND       PRES   REMARKS
FARGO          PTCLDY     3  -8  60 NW13      30.37S WCI -14
6HR MIN TEMP:   3; 6HR MAX TEMP:   7;

JAMESTOWN      CLEAR      0 -11  59 NW13      30.33R WCI -18
$$




USA.gov is the U.S. government's official web portal to all federal, state and local government web resources and services.